Insider Stock Trading History of Blum Robert I


The following table details the trading activities (stock purchases, stock sales, and stock option exercises) reported to the Securities and Exchange Commission (SEC) by insider Blum Robert I since year 2005. The trader's CIK number is 1288859. At the time of this reporting, Blum Robert I is the President & CEO of Cytokinetics Inc . (stock ticker symbol CYTK). See this page for all insider trading activities at Cytokinetics Inc .


Stock purchases, sales, and option exercises reported by insider Blum Robert I since 2005.
  Trade Date   Symbol Company Name (Issuer) Trade Type     Shares       Price ($)   Value ($)
2017-10-02 CYTK Cytokinetics Inc Sale 5,000 14.55 72,770
2017-09-01 CYTK Cytokinetics Inc Sale 5,000 14.75 73,750
2017-08-01 CYTK Cytokinetics Inc Sale 5,000 13.78 68,905
2017-07-03 CYTK Cytokinetics Inc Sale 5,000 12.16 60,780
2017-06-01 CYTK Cytokinetics Inc Sale 5,000 13.62 68,125
2013-09-03 CYTK Cytokinetics Inc Option Ex 29,166 .00 0
2012-09-04 CYTK Cytokinetics Inc Option Ex 175,000 .00 0
2010-02-18 CYTK Cytokinetics Inc Sale 500 3.14 1,570
2010-02-18 CYTK Cytokinetics Inc Option Ex 500 1.20 600
2010-02-11 CYTK Cytokinetics Inc Sale 500 2.96 1,480
2010-02-11 CYTK Cytokinetics Inc Option Ex 500 1.20 600
2010-01-19 CYTK Cytokinetics Inc Option Ex 500 1.20 600
2010-01-19 CYTK Cytokinetics Inc Sale 500 3.34 1,670
2010-01-05 CYTK Cytokinetics Inc Option Ex 500 1.20 600
2010-01-05 CYTK Cytokinetics Inc Sale 500 3.11 1,555
2009-12-15 CYTK Cytokinetics Inc Sale 500 3.05 1,525
2009-12-15 CYTK Cytokinetics Inc Option Ex 500 1.20 600
2009-12-01 CYTK Cytokinetics Inc Option Ex 500 1.20 600
2009-12-01 CYTK Cytokinetics Inc Sale 500 3.12 1,560
2009-11-24 CYTK Cytokinetics Inc Option Ex 500 1.20 600
2009-11-24 CYTK Cytokinetics Inc Sale 500 3.47 1,735
2009-11-10 CYTK Cytokinetics Inc Sale 500 3.24 1,620
2009-11-10 CYTK Cytokinetics Inc Option Ex 500 1.20 600
2009-10-22 CYTK Cytokinetics Inc Option Ex 500 1.20 600
2009-10-22 CYTK Cytokinetics Inc Sale 500 4.77 2,385
2009-10-08 CYTK Cytokinetics Inc Sale 500 4.85 2,425
2009-10-08 CYTK Cytokinetics Inc Option Ex 500 1.20 600
2009-09-24 CYTK Cytokinetics Inc Option Ex 500 1.20 600
2009-09-24 CYTK Cytokinetics Inc Sale 500 4.62 2,310
2009-09-10 CYTK Cytokinetics Inc Option Ex 500 1.20 600
2009-09-10 CYTK Cytokinetics Inc Sale 500 3.21 1,605
2009-08-18 CYTK Cytokinetics Inc Sale 500 2.81 1,405
2009-08-18 CYTK Cytokinetics Inc Option Ex 500 1.20 600
2009-08-04 CYTK Cytokinetics Inc Option Ex 1,000 1.20 1,200
2009-08-04 CYTK Cytokinetics Inc Sale 1,000 3.00 3,000
2009-07-22 CYTK Cytokinetics Inc Option Ex 1,000 1.20 1,200
2009-07-22 CYTK Cytokinetics Inc Sale 1,000 2.83 2,830
2009-07-08 CYTK Cytokinetics Inc Sale 1,000 2.72 2,720
2009-07-08 CYTK Cytokinetics Inc Option Ex 1,000 1.20 1,200
2009-06-22 CYTK Cytokinetics Inc Option Ex 1,000 1.20 1,200
2009-06-22 CYTK Cytokinetics Inc Sale 1,000 2.74 2,740
2009-06-08 CYTK Cytokinetics Inc Option Ex 1,000 1.20 1,200
2009-06-08 CYTK Cytokinetics Inc Sale 1,000 2.97 2,970
2009-05-22 CYTK Cytokinetics Inc Sale 1,000 2.00 2,000
2009-05-22 CYTK Cytokinetics Inc Option Ex 1,000 1.20 1,200
2009-05-18 CYTK Cytokinetics Inc Sale 1,000 2.00 2,000
2009-05-18 CYTK Cytokinetics Inc Option Ex 1,000 1.20 1,200
2009-05-06 CYTK Cytokinetics Inc Option Ex 1,000 1.20 1,200
2009-05-06 CYTK Cytokinetics Inc Sale 1,000 2.00 2,000
2009-05-01 CYTK Cytokinetics Inc Option Ex 4,676 1.20 5,611
2009-05-01 CYTK Cytokinetics Inc Sale 4,676 2.00 9,375
2009-04-24 CYTK Cytokinetics Inc Option Ex 324 1.20 388
2009-04-24 CYTK Cytokinetics Inc Sale 324 2.00 648
2009-04-22 CYTK Cytokinetics Inc Option Ex 25,200 1.20 30,240
2009-04-21 CYTK Cytokinetics Inc Option Ex 2,800 1.20 3,360
2009-04-22 CYTK Cytokinetics Inc Sale 25,200 2.00 50,400
2009-04-21 CYTK Cytokinetics Inc Sale 2,800 2.00 5,600
2009-03-30 CYTK Cytokinetics Inc Sale 2,000 2.00 4,000
2009-03-30 CYTK Cytokinetics Inc Option Ex 2,000 1.20 2,400
2009-03-26 CYTK Cytokinetics Inc Option Ex 20,000 1.20 24,000
2009-03-26 CYTK Cytokinetics Inc Sale 20,000 2.00 40,000
2009-03-17 CYTK Cytokinetics Inc Sale 4,538 2.00 9,076
2009-03-16 CYTK Cytokinetics Inc Sale 962 2.00 1,924
2009-03-17 CYTK Cytokinetics Inc Option Ex 4,538 .58 2,632
2009-03-16 CYTK Cytokinetics Inc Option Ex 962 .58 557
2008-09-15 CYTK Cytokinetics Inc Sale 5,838 5.00 29,190
2008-09-15 CYTK Cytokinetics Inc Option Ex 5,838 1.20 7,005
2008-08-29 CYTK Cytokinetics Inc Sale 9,676 5.30 51,253
2008-08-29 CYTK Cytokinetics Inc Option Ex 9,676 1.20 11,611
2008-08-15 CYTK Cytokinetics Inc Option Ex 3,889 1.20 4,666
2008-08-15 CYTK Cytokinetics Inc Sale 5,300 5.00 26,500
2008-07-31 CYTK Cytokinetics Inc Option Ex 13,302 2.00 26,604
2008-07-31 CYTK Cytokinetics Inc Sale 20,651 5.00 103,255
2007-12-14 CYTK Cytokinetics Inc Option Ex 6,702 2.00 13,404
2007-12-14 CYTK Cytokinetics Inc Sale 6,702 5.39 36,123
2007-11-30 CYTK Cytokinetics Inc Sale 6,805 5.19 35,317
2007-11-30 CYTK Cytokinetics Inc Option Ex 6,805 2.00 13,610
2007-11-15 CYTK Cytokinetics Inc Option Ex 7,009 2.00 14,018
2007-11-15 CYTK Cytokinetics Inc Sale 7,009 5.00 35,045
2007-10-31 CYTK Cytokinetics Inc Option Ex 7,419 2.00 14,838
2007-10-31 CYTK Cytokinetics Inc Sale 7,419 5.03 37,317
2007-10-15 CYTK Cytokinetics Inc Option Ex 8,237 2.00 16,474
2007-10-15 CYTK Cytokinetics Inc Sale 8,237 6.05 49,809
2007-09-28 CYTK Cytokinetics Inc Sale 9,874 5.09 50,258
2007-09-28 CYTK Cytokinetics Inc Option Ex 9,874 2.00 19,748
2007-08-30 CYTK Cytokinetics Inc Option Ex 6,548 1.29 8,446
2007-08-30 CYTK Cytokinetics Inc Sale 6,548 5.11 33,460
2007-08-15 CYTK Cytokinetics Inc Option Ex 6,497 .58 3,768
2007-08-15 CYTK Cytokinetics Inc Sale 6,497 5.04 32,744
2007-07-31 CYTK Cytokinetics Inc Option Ex 267 .58 154
2007-07-31 CYTK Cytokinetics Inc Sale 6,394 5.00 31,970
2007-07-16 CYTK Cytokinetics Inc Sale 6,188 5.48 33,910
2007-07-16 CYTK Cytokinetics Inc Option Ex 60 .58 34
2007-06-29 CYTK Cytokinetics Inc Sale 5,775 5.86 33,864
2007-06-15 CYTK Cytokinetics Inc Sale 4,950 6.46 31,977
2007-05-29 CYTK Cytokinetics Inc Sale 3,300 6.50 21,459
2006-12-15 CYTK Cytokinetics Inc Option Ex 5,000 .58 2,900
2006-12-15 CYTK Cytokinetics Inc Sale 5,000 6.94 34,700
2006-11-30 CYTK Cytokinetics Inc Sale 5,000 7.29 36,465
2006-11-30 CYTK Cytokinetics Inc Option Ex 5,000 .58 2,900
2006-11-15 CYTK Cytokinetics Inc Option Ex 5,000 .58 2,900
2006-11-15 CYTK Cytokinetics Inc Sale 5,000 7.62 38,090
2006-10-30 CYTK Cytokinetics Inc Sale 5,000 7.01 35,075
2006-10-30 CYTK Cytokinetics Inc Option Ex 5,000 .58 2,900
2006-10-16 CYTK Cytokinetics Inc Option Ex 5,000 .58 2,900
2006-10-16 CYTK Cytokinetics Inc Sale 5,000 6.75 33,745
2006-10-02 CYTK Cytokinetics Inc Option Ex 5,000 .58 2,900
2006-10-02 CYTK Cytokinetics Inc Sale 5,000 6.38 31,880
2006-09-15 CYTK Cytokinetics Inc Sale 5,000 6.77 33,830
2006-09-15 CYTK Cytokinetics Inc Option Ex 5,000 .58 2,900
2006-08-30 CYTK Cytokinetics Inc Option Ex 5,000 .58 2,900
2006-08-30 CYTK Cytokinetics Inc Sale 5,000 6.44 32,200
2006-08-15 CYTK Cytokinetics Inc Option Ex 4,999 .58 2,899
2006-08-15 CYTK Cytokinetics Inc Sale 4,999 5.45 27,259
2006-07-31 CYTK Cytokinetics Inc Sale 4,999 5.63 28,124
2006-07-31 CYTK Cytokinetics Inc Option Ex 4,999 .58 2,899
2006-07-17 CYTK Cytokinetics Inc Option Ex 4,998 .58 2,898
2006-07-17 CYTK Cytokinetics Inc Sale 4,998 5.51 27,563
2006-06-30 CYTK Cytokinetics Inc Sale 4,995 6.61 33,016
2006-06-30 CYTK Cytokinetics Inc Option Ex 4,995 .58 2,897
2006-05-30 CYTK Cytokinetics Inc Sale 4,980 7.06 35,158
2006-05-30 CYTK Cytokinetics Inc Option Ex 4,980 .58 2,888
2006-05-15 CYTK Cytokinetics Inc Option Ex 4,961 .58 2,877
2006-05-15 CYTK Cytokinetics Inc Sale 4,961 6.99 34,672
2006-05-01 CYTK Cytokinetics Inc Option Ex 4,922 .58 2,854
2006-05-01 CYTK Cytokinetics Inc Sale 4,922 7.17 35,275
2006-04-17 CYTK Cytokinetics Inc Option Ex 4,844 .58 2,809
2006-04-17 CYTK Cytokinetics Inc Sale 4,844 7.34 35,554
2006-03-30 CYTK Cytokinetics Inc Option Ex 4,688 .58 2,719
2006-03-30 CYTK Cytokinetics Inc Sale 4,688 7.06 33,097
2006-03-15 CYTK Cytokinetics Inc Sale 4,375 7.01 30,668
2006-03-15 CYTK Cytokinetics Inc Option Ex 4,375 .58 2,537
2006-02-28 CYTK Cytokinetics Inc Option Ex 3,750 .58 2,175
2006-02-28 CYTK Cytokinetics Inc Sale 3,750 7.10 26,625
2006-02-15 CYTK Cytokinetics Inc Option Ex 2,500 .58 1,450
2006-02-15 CYTK Cytokinetics Inc Sale 2,500 7.14 17,850

Insider trading activities including stock purchases, stock sales, and option exercises listed in the above table cannot be completely guaranteed as to their accuracy. For more information regarding the trades made by Blum Robert I (President & CEO of Cytokinetics Inc at the time of this reporting) see the Securities and Exchange Commission (SEC) website.